#timestamp,LO_Frequency,Hit,StdDev 
1512363615.4,286047002.4,N
1512363635.3,286047002.3,N
1512363655.1,286047002.0,N
1512363675.8,286047002.5,N
1512363695.7,286047002.1,N
1512363715.5,286046999.8,N
1512363735.4,286046999.8,N
1512363755.2,286047002.6,N
1512363775.0,286047002.4,N
1512363775.9,286047002.4,N
1512363795.8,286047000.6,N
1512363815.6,286046999.5,N
1512363835.5,286046996.6,N
1512363855.3,286047001.2,N
1512363875.1,286046999.1,N
1512363895.9,286046998.3,N
1512363915.7,286046999.5,N
1512363935.5,286046998.3,N
1512363955.4,286047001.0,N
1512363975.2,286046998.2,N
1512363995.1,286046998.3,N
1512363996.0,286046998.3,N
1512364015.8,286046998.3,N
1512364035.6,286046998.1,N
1512364055.5,286047001.1,N
1512364075.3,286047000.1,N
1512364095.2,286047000.7,N
1512364115.9,286047000.1,N
1512364135.7,286047000.6,N
1512364155.6,286047001.0,N
1512364175.4,286047001.6,N
1512364195.2,286047001.9,N
1512364215.1,286047002.3,N
1512364216.0,286047002.3,N
1512364235.8,286047002.3,N
1512364255.7,286047002.6,N
1512364275.5,286047002.2,N
1512364295.3,286047001.5,N
1512364315.2,286047001.6,N
1512364335.0,286047003.2,N
1512364335.9,286047003.2,N
1512364355.8,286047002.7,N
1512364375.6,286047001.4,N
1512364395.5,286047003.7,N
1512364415.3,286047001.3,N
1512364435.1,286047004.9,N
1512364455.9,286047006.0,Y
1512364475.7,286047003.5,P
1512364495.5,286047004.2,P
1512364515.4,286047003.4,N
1512364535.2,286047003.4,N
1512364555.1,286047001.4,N
1512364556.0,286047001.4,N
1512364575.8,286047004.4,Y
1512364595.6,286047002.4,P
1512364615.5,286047001.9,P
1512364635.3,286047001.5,P
1512364655.2,286047002.3,Y
1512364675.9,286047001.2,P
1512364695.7,286046998.1,P
1512364715.6,286046997.3,N
1512364735.4,286046999.4,N
1512364755.2,286047000.1,N
1512364775.1,286047000.7,N
1512364776.0,286047000.7,N
1512364795.8,286047000.9,N
1512364815.7,286046998.3,N
1512364835.5,286046998.7,N
1512364855.3,286047000.4,N
1512364875.2,286046998.1,N
1512364895.0,286046996.5,N
1512364895.9,286046996.5,N
1512364915.8,286046998.8,N
1512364935.6,286046997.4,N
1512364955.4,286046997.0,N
1512364975.3,286046999.5,N
1512364995.1,286046995.0,Y
1512365015.9,286046996.6,P
1512365035.7,286046998.4,N
1512365055.5,286046998.5,N
1512365075.4,286047000.5,N
1512365095.2,286046999.3,N
1512365115.1,286046998.1,N
1512365116.0,286046998.1,N
1512365135.8,286047001.2,N
1512365155.6,286047000.3,N
1512365175.5,286046999.8,N
1512365195.3,286047001.9,N
1512365215.2,286047002.4,N
1512365235.9,286047001.2,N
1512365255.7,286046999.3,N
1512365275.6,286046996.5,N
1512365295.4,286046997.0,N
1512365315.2,286046999.4,N
1512365335.1,286046999.2,N
1512365336.0,286046999.2,N
1512365355.8,286046999.3,N
1512365375.7,286046999.5,N
1512365395.5,286046999.4,N
1512365415.3,286046996.7,N
1512365465.2,286046999.4,E
1512365475.1,286046998.4,N
1512365495.9,286046998.2,P
1512365515.7,286047002.3,P
1512365535.5,286047005.2,N
1512365555.4,286047005.9,N
1512365575.2,286047004.2,N
1512365595.1,286047002.1,N
1512365596.0,286047002.1,N
1512365615.8,286046999.9,N
1512365635.6,286047000.9,N
1512365655.5,286046998.1,N
1512365675.3,286047001.0,N
1512365695.1,286047000.6,N
1512365715.9,286047000.4,N
1512365735.7,286047004.4,N
1512365755.6,286047002.1,N
1512365775.4,286047003.8,N
1512365795.2,286047002.1,N
1512365815.1,286047000.2,N
1512365816.0,286047000.2,N
1512365835.8,286046998.4,N
1512365855.7,286047001.1,N
1512365875.5,286047000.9,N
1512365895.3,286046998.8,N
1512365915.2,286046999.8,N
1512365935.0,286047001.0,N
1512365935.9,286047001.0,N
1512365955.7,286046998.1,N
1512365975.6,286047000.9,N
1512365995.4,286047002.8,N
1512366015.3,286047000.3,N
1512366035.1,286047000.8,N
1512366036.0,286047000.8,N
1512366055.8,286047000.9,N
1512366075.7,286047000.5,N
1512366095.5,286047000.2,N
1512366115.3,286047002.2,N
1512366135.2,286047003.5,N
1512366155.0,286047001.6,N
1512366155.9,286047001.6,N
1512366175.8,286047004.0,N
1512366195.6,286047002.2,N
1512366215.4,286047002.8,N
1512366235.3,286047001.2,N
1512366255.1,286047001.1,N
1512366275.9,286047004.2,N
1512366295.7,286047006.3,Y
1512366315.5,286047004.6,P
1512366335.4,286047007.2,P
1512366355.2,286047002.9,N
1512366375.0,286047003.6,N
1512366375.9,286047003.6,N
1512366395.8,286047002.0,N
1512366415.6,286047002.5,N
1512366435.5,286047003.9,N
1512366455.3,286047001.8,N
1512366475.1,286047002.2,N
1512366495.9,286047001.4,N
1512366515.7,286047001.5,N
1512366535.6,286047004.4,N
1512366555.4,286046999.7,N
1512366575.2,286046999.9,N
1512366595.1,286046999.0,N
1512366596.0,286046999.0,N
1512366615.8,286046998.7,N
1512366635.7,286046998.6,N
1512366655.5,286046999.4,N
1512366675.3,286046999.6,N
1512366695.2,286046998.7,N
1512366715.0,286046998.9,N
1512366745.9,286046998.8,E
1512366755.9,286046999.4,N
1512366775.7,286047000.7,P
1512366795.5,286047000.6,N
1512366815.4,286046999.7,N
1512366835.2,286047002.7,Y
1512366855.0,286047000.8,P
1512366855.9,286047000.8,N
1512366875.8,286046997.3,P
1512366895.6,286046998.5,N
1512366915.5,286046998.2,N
1512366935.3,286047001.8,N
1512366955.1,286047005.9,Y
1512366975.9,286047004.9,P
1512366995.7,286047007.1,N
1512367015.5,286047007.4,N
1512367035.4,286047005.5,N
1512367055.2,286047004.8,N
1512367075.1,286047003.1,N
1512367076.0,286047003.1,N
1512367095.8,286047000.0,N
1512367115.6,286047002.0,N
1512367135.5,286047004.3,N
1512367155.3,286047002.1,N
1512367175.1,286046999.8,N
1512367195.9,286047005.9,N
